Location: Banska Bystrica
(0.0000°N, 19.1500°E)
Time: 03:59:13
(UTC+01:00)

CZ-4 R/B - Pass Details

Date: 19 February 2019
Orbit: 532 x 599 km, 97.8° (Epoch: 22 March)

Event Time Altitude Azimuth Distance (km) Brightness Sun altitude
Rises 18:48:30 0° 189° (S) 2,674 5.1 -12.6°
Reaches altitude 10° 18:50:53 10° 203° (SSW) 1,781 4.4 -13.2°
Maximum altitude 18:54:02 25° 258° (WSW) 1,108 3.8 -13.9°
Drops below altitude 10° 18:57:13 10° 314° (NW) 1,781 4.4 -14.7°
Sets 18:59:36 0° 328° (NNW) 2,675 5.1 -15.3°
